"Pseudo-MPEC" for C1HAT02

Created 2019 Dec 3 23:07:12 UT using Find_Orb

Click here for an explanation of pseudo-MPECs

 
 Astrometry: 
     C1HAT02  C2019 12 02.25459 03 36 34.04 +32 48 05.1    ~C26q       VNEOCPG96
     C1HAT02  C2019 12 02.25973 03 36 47.21 +32 45 20.7    ~C26q 19.9 GVNEOCPG96
     C1HAT02  C2019 12 02.26485 03 37 00.02 +32 42 40.9    ~C26q 20.3 GVNEOCPG96
     C1HAT02  C2019 12 02.27004 03 37 13.65 +32 39 51.2    ~C26q 20.6 GVNEOCPG96
     C1HAT02  C2019 12 02.35818 03 40 49.92 +31 53 56.6    ~C297 20.2 GVNEOCPI52
     C1HAT02  C2019 12 02.35930 03 40 52.55 +31 53 22.0    ~C297 19.5 GVNEOCPI52
     C1HAT02  C2019 12 02.36041 03 40 55.23 +31 52 47.2    ~C297 19.6 GVNEOCPI52
     C1HAT02  C2019 12 02.36152 03 40 57.88 +31 52 13.4    ~C297 20.0 GVNEOCPI52
     C1HAT02  C2019 12 03.36607 04 12 09.21 +24 59 59.7    ~C39b 20.4 GVNEOCPG96
     C1HAT02  C2019 12 03.37181 04 12 16.56 +24 58 02.5    ~C39b       VNEOCPG96
     C1HAT02  C2019 12 03.37755 04 12 23.52 +24 56 09.0    ~C39b 20.7 GVNEOCPG96
     C1HAT02  C2019 12 03.38329 04 12 30.62 +24 54 15.0    ~C39b 20.6 GVNEOCPG96
     C1HAT02 pC2019 12 03;BI-q!R38CVaD:37kDh+EEZ7n(JAstrometryDxGG+rH7+:4aJ:IL01
     C1HAT02 pC2019 12 03HU\:FR8i7]4qredacted;O\TSZR'7s)OXwc@!XCI3Y=3eUmjNBL(L01
     C1HAT02 IC2019 12 03u`4vg%IJ.[GLclickUH*RL=1i*herePy-SlQ[4X=/Q_,V.VeDX7yL01
     C1HAT02 IC2019 12 03u,,l=vvnu]!g5\Umyde*JK:2\YV:J0tEp'73W4[for,K6M`r(-KlL01
     C1HAT02 pC2019 12 03M/pxJ)Z)9tT#IysPka-%vm*3@E_explanationHRenYteXDH8N;gL01

Station data:
(G96) Mt. Lemmon Survey  (N32.442754 W110.788720)  US/Arizona.  Observers T.
   A. Pruyne, B. M. Africano, E. J. Christensen, G. A. Farneth, D. C. Fuls,
   A. R. Gibbs, A. D. Grauer, H. Gröller, J. A. Johnson, R. A. Kowalski, S.
   M. Larson, G. J. Leonard, D. Rankin, R. L. Seaman, F. C. Shelly. 1.5-m
   reflector + 10K CCD.
(I52) Steward Observatory, Mt. Lemmon Station  (N32.442547 W110.788920)
   US/Arizona.  Observers T. A. Pruyne, B. M. Africano, E. J. Christensen, G.
   A. Farneth, D. C. Fuls, A. R. Gibbs, A. D. Grauer, H. Gröller, J. A.
   Johnson, R. A. Kowalski, S. M. Larson, G. J. Leonard, D. Rankin, R. L.
   Seaman, F. C. Shelly. 1.0-m reflector + CCD.
(L01) Višnjan Observatory, Tičan  (N45.290900 E13.749300)  Croatia.
   Observers K. Korlević, E. Pettarin. Measurer E. Pettarin. 1.0-m f/2.9
   reflector + CCD.

Orbital elements:  C1HAT02
   Perihelion 2019 Oct 19.740352 +/- 0.0377 TT = 17:46:06 (JD 2458776.240352)
Epoch 2019 Dec  3.0 TT = JDT 2458820.5   Earth MOID: 0.0116   Ma: 0.0564
M  21.44373571 +/- 0.10             (J2000 ecliptic)          AutoNEOCP
n   0.48449856 +/- 0.00207          Peri.  118.99105 +/- 0.007
a   1.60549043 +/- 0.00456          Node   251.20965 +/- 0.00030
e   0.4711440 +/- 0.0017            Incl.    7.72867 +/- 0.023
P   2.03/743.02d           H 28.2   G  0.15   U  8.6  
q 0.84907323 +/- 0.000324    Q 2.36190763 +/- 0.00943
From 17 observations 2019 Dec. 2-3 (39.4 hr); mean residual 1".26
Residuals in arcseconds: 
191202 G96  1.1-  1.7+    191202 I52  .01+  .24-    191203 L01  .17-  .17+    
191202 G96  .18-  .10-    191202 I52  .11-  .34+    191203 L01  .14+  .18+    
191202 G96  2.5-  2.0+    191203 G96  .60-  .56+    191203 L01  .21-  .19+    
191202 G96  3.8+  3.8-    191203 G96  2.0+  1.5-    191203 L01  .02-  .33-    
191202 I52  .47+  .05+    191203 G96  .63-  .09-    191203 L01  .56+  .04+    
191202 I52  .24-  .17+    191203 G96  1.2-  .70+    

Ephemerides (geocentric):
Date (UTC) HH   RA              Dec         delta   r     elong  mag " sig PA
---- -- -- --  -------------   -----------  ------ ------ -----  --- ---- ---
2019 12 03 23  04 23 49.442   +22 08 28.03  .03065 1.0163 176.6 21.0 .654 157
2019 12 04 00  04 24 30.744   +21 57 48.84  .03091 1.0166 176.7 21.0 .717 155
2019 12 04 01  04 25 11.239   +21 47 20.01  .03118 1.0168 176.8 21.0 .781 154
2019 12 04 02  04 25 50.949   +21 37 01.32  .03145 1.0171 176.9 21.0 .845 152
2019 12 04 03  04 26 29.895   +21 26 52.57  .03172 1.0173 176.9 21.0 .911 151
2019 12 04 04  04 27 08.100   +21 16 53.53  .03199 1.0176 177.0 21.0 .977 150
2019 12 04 05  04 27 45.583   +21 07 04.00  .03226 1.0179 177.0 21.0 1.04 150
2019 12 04 06  04 28 22.364   +20 57 23.79  .03253 1.0181 177.1 21.1 1.11 149
2019 12 04 07  04 28 58.462   +20 47 52.70  .03280 1.0184 177.1 21.1 1.18 148
2019 12 04 08  04 29 33.895   +20 38 30.53  .03307 1.0187 177.1 21.1 1.25 148
2019 12 04 09  04 30 08.682   +20 29 17.11  .03335 1.0189 177.1 21.1 1.31 148
2019 12 04 10  04 30 42.838   +20 20 12.25  .03362 1.0192 177.0 21.1 1.38 147
2019 12 04 11  04 31 16.382   +20 11 15.77  .03389 1.0195 177.0 21.2 1.45 147
2019 12 04 12  04 31 49.328   +20 02 27.51  .03416 1.0197 177.0 21.2 1.52 146
2019 12 04 13  04 32 21.692   +19 53 47.28  .03444 1.0200 176.9 21.2 1.59 146
2019 12 04 14  04 32 53.489   +19 45 14.93  .03471 1.0203 176.9 21.2 1.65 146
2019 12 04 15  04 33 24.733   +19 36 50.30  .03499 1.0205 176.8 21.2 1.72 146
2019 12 04 16  04 33 55.438   +19 28 33.23  .03526 1.0208 176.7 21.3 1.79 145
2019 12 04 17  04 34 25.619   +19 20 23.56  .03554 1.0211 176.6 21.3 1.86 145
2019 12 04 18  04 34 55.287   +19 12 21.15  .03581 1.0213 176.5 21.3 1.92 145
2019 12 04 19  04 35 24.455   +19 04 25.85  .03609 1.0216 176.5 21.3 1.99 145
2019 12 04 20  04 35 53.136   +18 56 37.52  .03637 1.0219 176.4 21.4 2.06 145
2019 12 04 21  04 36 21.342   +18 48 56.02  .03664 1.0221 176.3 21.4 2.13 145
2019 12 04 22  04 36 49.083   +18 41 21.21  .03692 1.0224 176.2 21.4 2.19 145
2019 12 04 23  04 37 16.372   +18 33 52.96  .03720 1.0227 176.1 21.4 2.26 144
2019 12 05 00  04 37 43.218   +18 26 31.14  .03748 1.0229 176.0 21.4 2.33 144
2019 12 05 01  04 38 09.633   +18 19 15.63  .03776 1.0232 175.9 21.5 2.39 144
2019 12 05 02  04 38 35.625   +18 12 06.30  .03803 1.0235 175.8 21.5 2.46 144
2019 12 05 03  04 39 01.206   +18 05 03.03  .03831 1.0237 175.7 21.5 2.52 144
2019 12 05 04  04 39 26.385   +17 58 05.71  .03859 1.0240 175.6 21.5 2.59 144
2019 12 05 05  04 39 51.171   +17 51 14.21  .03887 1.0243 175.5 21.6 2.65 144
2019 12 05 06  04 40 15.572   +17 44 28.43  .03915 1.0245 175.4 21.6 2.72 144
2019 12 05 07  04 40 39.598   +17 37 48.26  .03943 1.0248 175.2 21.6 2.78 144
2019 12 05 08  04 41 03.256   +17 31 13.59  .03971 1.0251 175.1 21.6 2.84 144
2019 12 05 09  04 41 26.556   +17 24 44.32  .03999 1.0253 175.0 21.6 2.91 144
2019 12 05 10  04 41 49.505   +17 18 20.34  .04028 1.0256 174.9 21.7 2.97 144
2019 12 05 11  04 42 12.111   +17 12 01.56  .04056 1.0259 174.8 21.7 3.03 144
2019 12 05 12  04 42 34.380   +17 05 47.88  .04084 1.0261 174.7 21.7 3.09 144
2019 12 05 13  04 42 56.322   +16 59 39.20  .04112 1.0264 174.6 21.7 3.16 143
2019 12 05 14  04 43 17.942   +16 53 35.43  .04140 1.0267 174.5 21.7 3.22 143
2019 12 05 15  04 43 39.247   +16 47 36.48  .04169 1.0269 174.4 21.8 3.28 143
2019 12 05 16  04 44 00.245   +16 41 42.27  .04197 1.0272 174.3 21.8 3.34 143
2019 12 05 17  04 44 20.941   +16 35 52.69  .04225 1.0275 174.2 21.8 3.40 143
2019 12 05 18  04 44 41.342   +16 30 07.68  .04253 1.0277 174.1 21.8 3.46 143
2019 12 05 19  04 45 01.454   +16 24 27.15  .04282 1.0280 174.0 21.8 3.52 143
2019 12 05 20  04 45 21.284   +16 18 51.02  .04310 1.0283 173.9 21.9 3.58 143
2019 12 05 21  04 45 40.836   +16 13 19.20  .04339 1.0285 173.8 21.9 3.64 143
2019 12 05 22  04 46 00.117   +16 07 51.63  .04367 1.0288 173.7 21.9 3.69 143